Preview of NWS' New Version of Forecast
This preview is not operational and should not be used for support decisions.

Regional Weather Roundup (RWR)

Issued by National Weather Service (NWS)

                            
000
ASUS46 KSEW 190710
RWRWA 

WASHINGTON REGIONAL WEATHER ROUNDUP
NATIONAL WEATHER SERVICE SEATTLE WA
1200 AM PDT FRI APR 19 2019

NOTE:"FAIR" INDICATES FEW OR NO CLOUDS BELOW 12,000 FEET WITH NO 
SIGNIFICANT WEATHER AND/OR OBSTRUCTIONS TO VISIBILITY.

WAZ507-509-555>559-190800-
SEATTLE, TACOMA, EVERETT, AND VICINITY
  
CITY           SKY/WX    TMP DP  RH WIND       PRES   REMARKS
EVERETT        CLOUDY    54  51  90 S10       30.04F                  
BOEING FIELD   CLOUDY    57  50  77 S8        30.06F                  
RENTON         CLOUDY    58  53  84 SE5       30.06F                  
SEATAC AIRPORT CLOUDY    56  51  84 S10       30.06F                  
JBLM-MCCHORD   CLOUDY    55  55 100 S3        30.07F                  
PUYALLUP       CLOUDY    55  55 100 CALM      30.07F                  
BREMERTON      CLOUDY    52  50  93 S5        30.05F                  
JBLM-FT LEWIS  CLOUDY    55  55 100 SE6       30.07F                  
TACOMA NARROWS CLOUDY    54  51  90 S6        30.07F                  
$$
 
WAZ001-503-506-510-514-515-190800-
NORTH INTERIOR
  
CITY           SKY/WX    TMP DP  RH WIND       PRES   REMARKS
BELLINGHAM     LGT RAIN  53  51  93 CALM      30.01F FOG              
FRIDAY HARBOR  LGT RAIN  52  50  93 CALM      30.03F VSB 1            
EASTSOUND      CLOUDY    54  54 100 SE3       30.00F                  
PORT ANGELES   CLOUDY    51  51 100 CALM      30.03F                  
EDIZ HOOK      CLOUDY    50  50  99 CALM      30.03S                  
PORT TOWNSEND  CLOUDY    52  52 100 CALM      30.01F                  
NAS WHIDBEY    CLOUDY    54  49  83 CALM      30.06F                  
ARLINGTON      CLOUDY    56  54  93 S8        30.04F                  
BURLINGTON     CLOUDY    55  55 100 S5        30.03S                  
$$
 
WAZ020-022-039-040-504-511-512-190800-
SOUTHWEST INTERIOR
  
CITY           SKY/WX    TMP DP  RH WIND       PRES   REMARKS
SHELTON        CLOUDY    53  50  89 SW10      30.05F                  
OLYMPIA        LGT RAIN  54  51  90 S5        30.07F                  
CHEHALIS       CLOUDY    57  54  88 CALM      30.08F                  
KELSO          LGT RAIN  56  52  86 CALM      30.08F                  
VANCOUVER      CLOUDY    60  51  72 NW5       30.06F                  
SCAPPOOSE, OR  MOCLDY    60  52  74 N10       30.05F                  
PORTLAND, OR   MOCLDY    60  50  69 W9        30.06F                  
$$
 
WAZ021-516-517-190800-
WASHINGTON COAST
  
CITY           SKY/WX    TMP DP  RH WIND       PRES   REMARKS
FORKS          LGT RAIN  51  51 100 S8        30.04F FOG              
HOQUIAM        CLOUDY    52  52 100 CALM      30.07F                  
ASTORIA, OR    CLOUDY    54  51  90 CALM      30.07F                  
$$
 
WAZ019-023-024-040-567>569-190800-
CASCADE MOUNTAINS AND COLUMBIA GORGE
  
CITY           SKY/WX    TMP DP  RH WIND       PRES   REMARKS
STAMPEDE PASS  FOG       47  45  93 CALM      30.09F VSB 1/4          
TROUTDALE, OR  MOCLDY    61  50  67 W5        30.05F                  
HOOD RIVER, OR PTSUNNY   61  50  67 MISG      30.02F                  
THE DALLES, OR MOCLDY    66  50  56 NW7       29.99F                  
$$

WAZ026-027-041>044-520-521-190800-
EAST SLOPES
  
CITY           SKY/WX    TMP DP  RH WIND       PRES   REMARKS
OMAK           PTCLDY    61  47  59 SE7       29.94F                  
WENATCHEE      MOCLDY    57  48  72 NW9       29.98F                  
ELLENSBURG     MOCLDY    56  48  74 NW12      30.01F                  
YAKIMA         MOCLDY    64  48  56 CALM      29.99F                  
SUNNYSIDE ARPT PTSUNNY   58  51  78 N3        29.99S                  
YAKIMA TC      PTSUNNY   59  48  68 E7        29.98F                  
$$

WAZ028-034-035-190800-
COLUMBIA BASIN
  
CITY           SKY/WX    TMP DP  RH WIND       PRES   REMARKS
EPHRATA        PTCLDY    58  49  72 NE6       29.98S                  
MOSES LAKE     PTCLDY    62  49  62 S8        29.98F                  
PASCO          MOCLDY    67  52  58 S7        29.98F                  
RICHLAND ARPT  PTSUNNY   64  52  64 S7        29.98                   
HERMISTON, OR  MOCLDY    62  54  74 S5        29.98F                  
$$

WAZ036>038-190800-
NORTHEAST WASHINGTON
  
CITY           SKY/WX    TMP DP  RH WIND       PRES   REMARKS
SPOKANE GEIGER MOCLDY    56  44  64 S8        30.02F                  
SPOKANE FELTS  PTCLDY    57  46  66 NE3       30.02F                  
FAIRCHILD AFB  CLOUDY    54  51  89 S5        30.02F                  
COEURDALENE,ID CLOUDY    51  45  79 CALM      30.04F                  
DEER PARK      MOCLDY    48  43  82 CALM      30.02F                  
$$

WAZ029>033-190800-
SOUTHEAST WASHINGTON
  
CITY           SKY/WX    TMP DP  RH WIND       PRES   REMARKS
PULLMAN        CLOUDY    56  46  69 NE5       30.07F                  
LEWISTON, ID   CLEAR     57  46  66 S6        30.03F                  
WALLA WALLA    CLOUDY    64  48  56 E7        30.00F                  
PENDLETON, OR  PTCLDY    56  51  84 SE5       30.01F                  
$$